EHI
11 15 22 27 31 30 25 19 14 13 11 9 6 4 2 1 2 4 4 5 5 4 4 3 3 3 1 0 0 0 0 0 0 0 0 0 0 0 0 0 0 0 0
14 17 22 29 34 35 31 24 19 17 15 11 7 4 2 2 3 5 5 7 8 7 5 4 3 3 2 1 0 0 0 0 0 0 0 0 0 0 0 0 0 0 0
19 21 26 33 37 37 34 29 24 22 19 14 9 6 4 4 5 6 7 9 11 11 10 8 6 4 3 2 1 1 1 1 0 0 0 0 0 0 0 0 0 0 0
23 25 31 35 36 34 32 30 26 24 21 17 12 10 8 7 7 7 9 10 11 14 16 14 10 6 5 3 2 2 2 2 1 1 1 1 1 1 0 0 0 0 0
26 27 30 33 32 31 30 30 30 27 24 21 17 14 12 10 8 8 10 10 9 12 15 13 11 9 7 5 5 4 3 3 3 2 2 3 2 1 0 0 0 0 0
25 25 27 28 28 29 31 34 35 32 29 26 21 16 14 12 9 8 9 8 7 8 9 9 9 8 7 6 6 5 4 3 4 4 4 4 3 2 1 1 0 0 0
22 23 23 24 24 28 34 39 38 35 33 32 27 20 17 15 12 10 9 7 6 6 7 7 7 8 8 7 6 5 5 4 5 6 6 5 4 4 3 2 1 0 0
19 20 20 22 24 29 36 40 38 35 34 33 28 24 20 18 15 13 12 11 9 9 9 10 10 10 10 9 8 8 7 6 6 6 6 6 6 5 5 5 3 1 0
18 17 18 21 25 28 33 37 36 33 31 27 22 20 19 17 15 13 13 13 13 12 11 11 11 11 12 12 12 10 9 7 6 6 6 7 7 7 7 6 4 2 1
18 17 17 20 23 26 30 33 33 31 27 21 15 14 15 15 14 12 11 12 12 12 11 10 11 12 13 13 13 11 9 7 6 6 6 6 7 7 6 5 3 2 2
16 15 16 19 22 25 28 30 30 28 24 18 14 13 13 14 13 13 12 11 11 11 11 12 14 15 13 11 11 10 8 6 5 4 4 4 5 5 4 4 3 3 3
15 14 15 18 21 24 27 28 27 25 23 21 19 16 14 13 13 14 14 13 11 11 13 15 16 16 13 11 10 9 7 5 4 4 4 3 3 3 3 3 3 3 3
17 17 17 18 19 21 23 24 23 23 24 26 25 20 16 15 15 16 17 15 13 14 15 17 16 14 12 11 11 10 7 4 3 4 4 4 4 4 3 3 3 3 3
21 21 21 20 20 20 20 20 21 23 27 30 28 23 19 18 18 18 18 17 16 16 17 16 14 11 9 8 9 8 6 4 3 4 4 5 5 5 4 4 3 3 3
21 22 22 22 22 21 21 22 22 25 29 30 27 23 20 19 19 19 19 18 17 17 16 15 11 8 7 6 5 4 4 5 4 4 5 6 6 5 4 4 3 3 3
18 18 20 22 22 22 22 24 24 27 30 29 25 21 19 19 18 18 17 16 14 13 13 11 8 6 5 4 2 1 3 5 5 5 5 5 4 4 3 2 2 3 3
18 18 19 20 21 21 22 23 25 26 27 25 21 18 18 18 17 15 14 12 10 9 9 7 5 4 4 2 1 0 2 3 4 4 4 4 4 3 2 1 1 2 3
20 21 22 22 23 23 24 25 26 26 24 21 19 17 18 18 17 14 11 10 8 8 7 6 5 4 4 2 1 1 2 2 3 3 4 4 4 3 3 2 2 3 3
23 25 27 27 27 28 28 30 30 30 26 22 19 18 18 17 15 13 11 10 10 9 9 8 6 5 4 2 1 1 2 3 4 4 3 3 3 2 2 2 3 3 3
29 31 33 33 31 29 30 33 34 34 31 26 22 21 19 16 13 11 11 12 12 10 9 7 6 5 3 1 0 0 1 3 4 3 3 2 1 1 0 1 3 3 3
33 35 37 36 32 30 31 33 35 34 31 28 25 24 21 18 13 10 10 11 11 10 8 7 6 4 2 1 0 0 1 2 2 3 3 2 1 0 0 1 2 2 2
32 33 35 35 33 32 32 32 32 30 28 25 24 22 20 18 14 10 9 10 9 7 6 6 5 3 2 1 0 0 0 1 1 1 2 2 1 0 0 0 1 1 1
29 31 32 32 32 32 30 28 26 25 23 21 18 16 15 14 11 8 8 8 6 4 4 5 4 2 1 0 0 0 0 0 0 0 1 1 0 0 0 0 0 0 1
26 28 29 27 26 26 24 22 21 20 18 16 14 12 10 9 7 5 5 5 4 3 3 3 2 1 0 0 0 0 0 0 0 0 0 0 0 0 0 0 0 0 1
20 21 22 20 19 18 18 17 17 16 14 11 10 9 7 6 4 3 2 2 1 1 1 1 1 0 0 0 0 0 0 0 0 0 0 0 0 0 0 0 0 0 1
17 16 16 16 15 14 14 14 14 13 11 8 8 7 6 5 4 3 1 0 0 0 0 0 0 0 0 0 0 0 0 0 0 0 0 0 0 0 0 0 0 1 1
Wind_Speed
9 11 11 12 10 9 8 8 7 6 5 3 3 2 2 2 1 2 3 3 3 3 3 2 1 1 1 1 1 1 1 1 0 1 2 3 2 2 2 2 2 3 4
8 10 10 11 11 10 9 8 8 7 6 4 3 3 3 2 2 2 3 3 3 3 3 3 2 2 1 1 1 0 0 1 0 1 1 3 4 3 2 1 2 3 2
12 11 11 10 10 10 10 9 8 7 6 5 3 2 1 0 0 1 2 3 4 3 3 3 3 2 2 2 2 1 1 1 1 1 2 1 2 3 3 2 2 2 2
10 10 11 11 11 11 9 8 7 7 6 6 4 5 3 3 4 2 2 2 3 3 3 3 3 3 2 2 2 1 2 2 1 1 1 2 3 1 2 3 2 2 2
10 11 11 11 10 10 9 8 8 7 7 6 6 5 4 3 2 1 2 2 2 2 3 3 3 3 3 3 2 2 2 2 2 1 1 1 1 2 2 3 4 3 2
9 9 8 7 6 7 8 7 7 6 6 7 6 6 6 4 3 2 2 2 1 2 2 3 3 3 3 3 3 3 2 2 2 1 1 1 1 2 2 3 3 3 3
9 8 7 6 6 7 8 8 7 6 6 6 6 6 6 5 5 4 3 2 1 1 2 2 2 2 2 3 3 2 2 1 1 2 1 1 2 2 2 2 2 2 2
8 8 9 8 8 8 7 8 7 6 6 6 5 4 4 3 3 3 3 3 2 2 2 2 2 2 2 2 2 1 2 1 1 2 2 1 1 1 2 2 1 1 2
8 8 8 8 8 7 6 7 7 5 5 5 4 4 4 3 3 3 2 2 2 2 2 2 2 2 2 2 1 1 1 1 1 1 1 1 2 1 1 1 2 3 2
7 8 7 7 7 7 6 5 5 6 5 5 4 4 3 3 3 2 3 2 2 2 1 2 2 2 2 2 1 1 1 1 1 1 1 1 2 1 1 1 1 2 3
8 7 6 6 6 6 7 6 5 5 4 4 4 3 3 2 2 2 3 2 2 2 1 2 2 2 2 1 1 1 1 1 1 1 1 2 2 1 1 1 1 1 2
6 7 7 6 5 5 6 6 5 5 4 4 4 3 2 2 2 2 2 2 1 1 1 1 1 1 1 1 1 1 0 0 1 1 1 2 1 2 2 1 1 2 2
5 5 6 7 7 6 6 6 5 5 5 4 4 3 3 2 2 1 2 2 1 1 1 1 1 1 1 1 1 1 1 1 1 1 1 2 1 2 2 2 2 2 2
7 7 6 6 6 6 6 6 5 5 6 5 5 4 4 3 3 2 1 1 1 1 1 1 1 1 1 1 1 1 1 0 1 2 2 2 2 2 2 2 2 2 1
6 6 6 6 5 4 5 5 5 5 5 5 5 5 4 3 2 2 1 1 1 1 1 1 1 1 1 1 1 1 1 1 2 2 2 2 2 2 2 2 2 1 1
8 7 6 6 6 6 5 5 5 5 5 5 4 4 3 3 2 2 1 1 1 1 1 1 1 1 1 1 1 1 1 1 2 3 3 2 2 3 3 3 3 2 2
9 9 9 8 8 7 6 6 5 4 5 5 4 3 3 3 2 2 1 1 1 0 1 1 1 1 2 1 2 2 1 1 1 1 2 2 2 2 2 4 4 3 4
8 9 8 7 6 6 5 5 4 5 4 4 3 3 3 3 2 2 2 2 1 1 2 2 2 1 2 2 2 2 1 1 2 2 2 2 3 3 2 2 3 3 4
7 7 7 7 6 6 6 6 4 4 4 4 3 3 3 3 2 2 2 2 2 2 2 2 2 2 2 2 2 2 1 1 2 2 2 2 3 4 4 2 3 4 5
5 5 6 6 6 5 6 7 5 5 5 5 4 3 3 3 3 3 2 1 2 2 1 1 1 2 2 2 2 2 1 1 2 3 3 4 5 5 3 2 3 4 5
5 6 6 6 6 5 6 6 5 5 5 4 4 3 3 4 3 2 1 1 1 1 0 1 2 1 2 2 2 2 1 2 2 2 3 3 5 5 5 3 3 5 5
4 5 5 5 5 5 6 5 4 4 3 4 3 3 3 3 2 2 1 1 1 1 1 1 1 1 1 1 1 2 2 2 2 3 3 3 5 6 6 4 4 5 3
4 4 6 5 4 4 6 6 4 4 4 4 3 3 2 2 2 3 2 1 1 1 1 1 1 1 1 2 2 2 2 1 2 3 4 5 6 5 4 4 5 3 1
4 4 6 6 4 4 4 5 5 5 5 5 3 3 3 2 1 1 1 1 2 2 2 2 2 2 1 1 2 2 2 2 2 2 4 5 5 4 4 3 2 1 1
3 4 5 5 5 4 3 3 4 4 4 4 3 3 3 3 2 1 1 2 3 3 4 3 3 3 3 4 4 3 2 2 2 2 2 1 1 2 2 2 2 2 1
3 3 4 4 3 3 3 3 3 4 5 3 2 2 2 2 2 2 1 2 1 2 3 5 4 3 4 5 4 3 3 2 2 0 1 2 2 2 2 2 2 1 1
Wind_Direction
186 176 170 168 164 164 166 171 170 174 163 158 166 174 206 223 223 221 207 194 200 204 192 205 221 202 199 241 248 224 285 287 277 20 334 321 301 270 251 233 215 214 216
178 175 172 170 170 171 174 174 176 177 177 177 176 179 188 210 215 222 217 207 206 210 203 197 210 212 212 260 271 196 257 290 188 146 40 340 338 328 292 263 217 217 214
179 178 175 176 173 177 179 180 182 181 183 177 162 160 127 29 253 225 225 225 214 211 205 195 201 217 205 227 246 219 188 247 287 168 156 165 254 307 317 295 258 239 225
170 174 175 176 180 184 178 174 178 181 184 177 174 177 185 206 220 214 217 230 223 210 201 199 200 217 211 215 235 219 206 197 257 280 215 194 182 185 306 317 306 288 257
172 171 174 179 180 181 178 178 177 185 186 185 185 184 194 210 216 202 199 220 237 224 209 201 197 214 220 216 231 231 221 198 204 218 238 240 207 173 189 288 311 320 290
169 170 170 167 174 172 175 176 175 187 186 187 186 186 193 198 197 203 210 227 236 239 229 211 211 214 209 210 217 226 215 212 204 202 196 193 197 207 187 233 269 284 288
166 164 166 171 177 174 172 170 174 186 188 188 188 192 195 193 198 202 200 204 225 242 242 225 216 212 215 215 208 209 220 219 211 216 222 217 221 202 188 198 246 268 284
166 169 173 176 178 175 170 168 171 181 183 185 192 192 187 191 201 194 183 192 208 223 230 222 214 210 211 218 203 209 230 225 226 242 235 230 244 222 205 195 199 274 294
168 169 170 169 168 166 170 170 169 172 179 182 181 182 181 185 188 182 178 185 205 212 214 203 198 201 201 207 191 199 247 252 240 252 246 235 249 238 231 209 189 195 241
160 159 164 159 162 165 164 164 170 174 180 180 183 180 188 189 188 178 183 196 207 212 211 211 203 199 209 209 191 222 251 246 273 254 280 285 280 278 269 240 218 196 194
163 163 158 155 155 152 158 171 178 175 180 186 184 174 183 188 183 192 208 206 209 206 204 208 200 201 212 218 187 219 208 221 278 296 281 291 294 294 295 280 255 226 186
160 160 154 145 146 155 163 169 174 176 183 184 173 168 166 156 176 201 204 195 201 204 191 179 177 195 192 188 197 221 233 192 278 288 294 295 297 299 289 282 275 259 226
149 151 154 159 166 172 173 176 174 174 170 160 157 158 167 170 180 199 204 187 181 171 164 155 170 194 172 190 204 185 186 214 255 262 262 276 285 294 295 289 283 274 271
153 153 158 167 172 175 176 176 178 176 168 163 166 173 182 188 186 181 174 181 170 160 168 177 183 181 167 166 189 160 167 242 271 264 256 260 251 262 278 289 282 277 291
156 161 167 166 165 164 168 171 178 176 168 162 171 183 178 179 178 177 178 181 181 187 181 166 156 164 158 195 207 212 229 248 271 280 274 266 259 254 255 272 261 259 261
168 173 175 166 168 170 173 172 176 171 157 160 173 172 158 160 170 179 175 162 179 213 159 153 193 215 243 234 216 199 251 263 270 286 294 296 312 313 308 302 282 232 227
171 172 176 177 178 180 175 175 172 157 151 160 168 167 162 166 179 181 154 167 181 204 210 218 202 231 259 240 225 217 213 246 265 278 296 307 327 323 313 314 312 293 271
168 176 178 176 177 172 162 160 154 155 155 158 161 165 170 176 169 162 178 190 180 214 233 236 225 219 249 239 245 258 260 270 278 273 269 276 295 302 294 298 307 296 287
170 171 172 164 157 156 155 146 150 154 156 163 168 173 171 172 169 182 198 199 193 225 240 236 227 226 260 254 253 244 262 276 284 284 292 280 281 293 292 287 286 294 293
153 152 149 140 146 157 148 142 152 158 170 178 180 175 165 168 180 198 209 202 193 221 244 259 251 231 252 259 255 228 206 259 282 296 292 278 278 295 297 260 265 278 283
145 142 141 147 158 155 142 145 153 175 184 174 167 167 168 175 183 186 190 183 179 180 236 256 282 268 251 264 270 241 208 224 250 272 280 282 294 299 297 271 245 256 264
128 134 137 143 151 151 146 151 169 178 158 148 151 163 174 182 173 169 192 183 161 168 237 258 309 310 286 258 274 275 254 226 224 255 267 274 290 299 298 286 281 290 291
138 135 135 132 135 147 149 158 178 161 147 146 158 168 164 165 166 170 189 193 174 176 209 215 244 278 288 286 283 278 284 269 242 257 271 282 286 294 296 293 296 304 299
139 136 134 138 151 160 160 169 168 155 148 155 166 169 165 168 167 168 178 183 195 190 208 214 228 245 267 278 288 289 293 300 293 290 293 295 293 286 283 298 304 268 235
131 143 148 156 169 167 161 164 156 147 153 164 173 177 178 178 177 173 194 201 213 205 200 219 213 203 233 248 243 244 262 267 269 294 314 322 319 319 315 310 296 287 288
124 134 140 146 158 153 155 167 165 156 155 161 176 179 173 179 173 155 5 349 265 243 215 207 198 219 230 242 256 270 277 274 257 189 278 280 275 268 272 276 285 291 279